TimeMDT,TemperatureF,Dew PointF,Humidity,Sea Level PressureIn,VisibilityMPH,Wind Direction,Wind SpeedMPH,Gust SpeedMPH,PrecipitationIn,Events,Conditions,WindDirDegrees,DateUTC
12:53 AM,44.1,39.9,85,30.25,10.0,North,-9999.0,-,N/A,,Clear,0,2012-09-07 06:53:00
1:53 AM,44.1,39.9,85,30.25,10.0,SSW,6.9,-,N/A,,Clear,210,2012-09-07 07:53:00
2:53 AM,45.0,39.9,82,30.24,10.0,Calm,Calm,-,N/A,,Clear,0,2012-09-07 08:53:00
3:53 AM,43.0,39.0,86,30.25,10.0,Calm,Calm,-,N/A,,Clear,0,2012-09-07 09:53:00
4:53 AM,39.9,37.9,93,30.26,10.0,Calm,Calm,-,N/A,,Clear,0,2012-09-07 10:53:00
5:53 AM,39.9,37.0,89,30.27,10.0,Calm,Calm,-,N/A,,Clear,0,2012-09-07 11:53:00
6:53 AM,41.0,37.0,86,30.27,10.0,Calm,Calm,-,N/A,,Clear,0,2012-09-07 12:53:00
7:53 AM,43.0,39.0,86,30.28,10.0,Calm,Calm,-,N/A,,Clear,0,2012-09-07 13:53:00
8:53 AM,52.0,43.0,71,30.29,10.0,SE,3.5,-,N/A,,Clear,130,2012-09-07 14:53:00
9:53 AM,59.0,42.1,53,30.27,10.0,South,9.2,-,N/A,,Clear,190,2012-09-07 15:53:00
10:53 AM,64.0,41.0,43,30.26,10.0,SW,8.1,-,N/A,,Clear,220,2012-09-07 16:53:00
11:53 AM,68.0,41.0,37,30.26,10.0,WSW,9.2,-,N/A,,Clear,250,2012-09-07 17:53:00
12:53 PM,72.0,37.9,29,30.24,10.0,WSW,9.2,-,N/A,,Clear,240,2012-09-07 18:53:00
1:53 PM,75.0,35.1,23,30.22,10.0,Variable,4.6,-,N/A,,Clear,0,2012-09-07 19:53:00
2:53 PM,78.1,25.0,14,30.20,10.0,West,8.1,17.3,N/A,,Clear,260,2012-09-07 20:53:00
3:53 PM,79.0,27.0,15,30.19,10.0,Variable,4.6,-,N/A,,Clear,0,2012-09-07 21:53:00
4:53 PM,81.0,24.1,12,30.18,10.0,Calm,Calm,-,N/A,,Clear,0,2012-09-07 22:53:00
5:53 PM,81.0,25.0,13,30.18,10.0,North,5.8,-,N/A,,Clear,350,2012-09-07 23:53:00
6:53 PM,78.1,25.0,14,30.19,10.0,NE,3.5,-,N/A,,Clear,50,2012-09-08 00:53:00
7:53 PM,68.0,26.1,21,30.22,10.0,NE,6.9,-,N/A,,Clear,50,2012-09-08 01:53:00
8:53 PM,64.9,21.0,19,30.23,10.0,ENE,8.1,-,N/A,,Clear,60,2012-09-08 02:53:00
9:53 PM,63.0,23.0,22,30.23,10.0,East,8.1,-,N/A,,Clear,90,2012-09-08 03:53:00
10:53 PM,57.9,23.0,26,30.24,10.0,ESE,5.8,-,N/A,,Clear,120,2012-09-08 04:53:00
11:53 PM,52.0,24.1,34,30.26,10.0,WSW,9.2,-,N/A,,Clear,240,2012-09-08 05:53:00